KLM691 EHAM-CYYZ

Flight info

Callsign KLM691
Flight time 7h 36m
Altitude 36000
Route BERGI L60 PENIL M144 BAGSO DCT OLAPO DCT DOGAL/M084F370 DCT 54N020W 53N030W 5130N04000W 50N050W DCT ELSIR/N0484F380 N412A MIILS/N0495F400 DCT VILRO DCT SAVEX Q806 TUKIR RAGID6
Aircraft MD11/H-SDE1E2E3FGHIJ2J3J4J5M1RWXY/LB1D1

Departure

Time 2026-05-07 06:38
Airport Amsterdam Airport Schiphol (EHAM)

Arrival

Time 2026-05-07 14:14
Airport Toronto Pearson International Airport (CYYZ)
Time Latitude Longitude Altitude Speed Heading
2026-05-07 06:14 52.31163 4.76787 8 ft 0 kts 304°
2026-05-07 06:30 52.31166 4.76785 6 ft 1 kts 319°
2026-05-07 06:31 52.31174 4.76786 8 ft 1 kts 358°
2026-05-07 06:31 52.31182 4.76798 8 ft 2 kts 46°
2026-05-07 06:31 52.31181 4.76813 8 ft 1 kts 93°
2026-05-07 06:31 52.31174 4.76844 8 ft 7 kts 109°
2026-05-07 06:32 52.31178 4.76949 7 ft 12 kts 59°
2026-05-07 06:32 52.31261 4.77061 6 ft 19 kts 34°
2026-05-07 06:32 52.31396 4.77185 6 ft 25 kts 13°
2026-05-07 06:32 52.31482 4.77012 6 ft 25 kts 267°
2026-05-07 06:33 52.31471 4.76690 6 ft 31 kts 267°
2026-05-07 06:33 52.31459 4.76342 6 ft 30 kts 266°
2026-05-07 06:33 52.31447 4.76020 6 ft 27 kts 266°
2026-05-07 06:33 52.31435 4.75696 6 ft 30 kts 266°
2026-05-07 06:34 52.31421 4.75346 6 ft 30 kts 266°
2026-05-07 06:34 52.31411 4.75013 6 ft 28 kts 267°
2026-05-07 06:34 52.31402 4.74707 7 ft 26 kts 267°
2026-05-07 06:34 52.31393 4.74412 6 ft 25 kts 267°
2026-05-07 06:35 52.31369 4.74176 7 ft 13 kts 229°
2026-05-07 06:35 52.31262 4.74126 6 ft 21 kts 184°
2026-05-07 06:35 52.31086 4.74110 6 ft 29 kts 183°
2026-05-07 06:35 52.30880 4.74091 6 ft 30 kts 183°
2026-05-07 06:36 52.30665 4.74073 6 ft 30 kts 182°
2026-05-07 06:36 52.30462 4.74055 6 ft 28 kts 183°
2026-05-07 06:36 52.30282 4.73985 6 ft 26 kts 210°
2026-05-07 06:36 52.30194 4.73809 5 ft 14 kts 276°
2026-05-07 06:37 52.30265 4.73745 4 ft 15 kts
2026-05-07 06:37 52.30481 4.73763 5 ft 65 kts
2026-05-07 06:37 52.31205 4.73829 5 ft 140 kts
2026-05-07 06:37 52.32346 4.73927 242 ft 172 kts
2026-05-07 06:38 52.33561 4.74034 1094 ft 178 kts
2026-05-07 06:38 52.34882 4.74148 1659 ft 205 kts
2026-05-07 06:38 52.36396 4.74057 2076 ft 233 kts 353°
2026-05-07 06:38 52.38073 4.73579 2688 ft 250 kts 350°
2026-05-07 06:39 52.39775 4.73013 3886 ft 250 kts 350°
2026-05-07 06:39 52.41504 4.72452 4879 ft 255 kts 348°
2026-05-07 06:39 52.43181 4.71419 5768 ft 263 kts 327°
2026-05-07 06:39 52.44604 4.69516 6689 ft 267 kts 317°
2026-05-07 06:40 52.45938 4.67371 7607 ft 270 kts 316°
2026-05-07 06:40 52.47269 4.65160 8481 ft 275 kts 315°
2026-05-07 06:40 52.48623 4.62907 9336 ft 280 kts 314°
2026-05-07 06:40 52.49994 4.60632 10210 ft 283 kts 314°
2026-05-07 06:41 52.51455 4.58354 10389 ft 310 kts 321°
2026-05-07 06:41 52.53346 4.56204 10546 ft 338 kts 327°
2026-05-07 06:41 52.55396 4.54199 11015 ft 351 kts 329°
2026-05-07 06:41 52.57467 4.52260 11848 ft 355 kts 329°
2026-05-07 06:42 52.59637 4.50243 12618 ft 360 kts 329°
2026-05-07 06:42 52.61808 4.48218 13500 ft 362 kts 329°
2026-05-07 06:42 52.64015 4.46147 14198 ft 366 kts 329°
2026-05-07 06:42 52.66234 4.44054 14890 ft 369 kts 329°
2026-05-07 06:43 52.68467 4.41941 15467 ft 375 kts 328°
2026-05-07 06:43 52.70737 4.39786 16139 ft 378 kts 329°
2026-05-07 06:43 52.72969 4.37472 16736 ft 381 kts 322°
2026-05-07 06:43 52.74881 4.34463 17402 ft 380 kts 306°
2026-05-07 06:44 52.76213 4.30691 18018 ft 382 kts 292°
2026-05-07 06:44 52.76973 4.27426 18277 ft 391 kts 288°
2026-05-07 06:44 52.77783 4.23145 18867 ft 391 kts 286°
2026-05-07 06:44 52.78557 4.18829 19360 ft 395 kts 286°
2026-05-07 06:45 52.79352 4.14480 19984 ft 394 kts 287°
2026-05-07 06:45 52.80175 4.10123 20359 ft 401 kts 287°
2026-05-07 06:45 52.81025 4.05740 20930 ft 401 kts 287°
2026-05-07 06:45 52.81889 4.01350 21513 ft 403 kts 288°
2026-05-07 06:46 52.82765 3.96936 21974 ft 407 kts 288°
2026-05-07 06:46 52.83658 3.92447 22326 ft 413 kts 288°
2026-05-07 06:46 52.84553 3.87940 22964 ft 414 kts 288°
2026-05-07 06:46 52.85457 3.83383 23319 ft 421 kts 288°
2026-05-07 06:47 52.86357 3.78836 23817 ft 423 kts 288°
2026-05-07 06:47 52.87273 3.74197 24302 ft 425 kts 288°
2026-05-07 06:47 52.88189 3.69545 24805 ft 428 kts 288°
2026-05-07 06:47 52.89111 3.64849 25310 ft 428 kts 288°
2026-05-07 06:48 52.90037 3.60123 25692 ft 434 kts 288°
2026-05-07 06:48 52.90966 3.55368 26267 ft 435 kts 288°
2026-05-07 06:48 52.91904 3.50558 26551 ft 442 kts 289°
2026-05-07 06:48 52.92849 3.45700 27008 ft 445 kts 289°
2026-05-07 06:49 52.93799 3.40801 27390 ft 449 kts 288°
2026-05-07 06:49 52.94755 3.35860 27834 ft 451 kts 289°
2026-05-07 06:49 52.95714 3.30889 28326 ft 453 kts 289°
2026-05-07 06:49 52.96676 3.25889 28714 ft 457 kts 289°
2026-05-07 06:50 52.97638 3.20860 29189 ft 459 kts 289°
2026-05-07 06:50 52.98591 3.15775 29562 ft 463 kts 288°
2026-05-07 06:50 52.99545 3.10658 29961 ft 466 kts 288°
2026-05-07 06:50 53.00508 3.05509 30279 ft 469 kts 289°
2026-05-07 06:51 53.01483 3.00324 30568 ft 472 kts 288°
2026-05-07 06:51 53.02467 2.95102 30873 ft 474 kts 289°
2026-05-07 06:51 53.03456 2.89862 31177 ft 476 kts 289°
2026-05-07 06:51 53.04443 2.84619 31539 ft 476 kts 289°
2026-05-07 06:52 53.05428 2.79375 31900 ft 476 kts 288°
2026-05-07 06:52 53.06411 2.74127 32249 ft 475 kts 289°
2026-05-07 06:52 53.07391 2.68879 32603 ft 475 kts 288°
2026-05-07 06:52 53.08368 2.63633 32951 ft 475 kts 288°
2026-05-07 06:53 53.09343 2.58382 33279 ft 475 kts 288°
2026-05-07 06:53 53.10313 2.53140 33586 ft 474 kts 288°
2026-05-07 06:53 53.11136 2.47814 33846 ft 476 kts 283°
2026-05-07 06:53 53.11709 2.42381 34137 ft 477 kts 280°
2026-05-07 06:54 53.12156 2.36917 34380 ft 477 kts 278°
2026-05-07 06:54 53.12560 2.31437 34623 ft 477 kts 278°
2026-05-07 06:54 53.12961 2.25968 34872 ft 476 kts 278°
2026-05-07 06:54 53.13374 2.20505 35118 ft 475 kts 278°
2026-05-07 06:55 53.13798 2.15040 35339 ft 475 kts 278°
2026-05-07 06:55 53.14231 2.09584 35563 ft 475 kts 278°
2026-05-07 06:55 53.14665 2.04141 35786 ft 474 kts 278°
2026-05-07 06:55 53.15098 1.98706 36008 ft 474 kts 279°
2026-05-07 06:56 53.15963 1.87771 36085 ft 477 kts 278°
2026-05-07 06:56 53.16814 1.76851 36088 ft 479 kts 278°
2026-05-07 06:57 53.17659 1.65869 36088 ft 479 kts 278°
2026-05-07 06:57 53.18496 1.54853 36094 ft 479 kts 278°
2026-05-07 06:58 53.19323 1.43822 36088 ft 480 kts 278°
2026-05-07 06:58 53.20143 1.32754 36088 ft 480 kts 278°
2026-05-07 06:59 53.20951 1.21690 36088 ft 480 kts 278°
2026-05-07 06:59 53.21739 1.10615 36088 ft 481 kts 277°
2026-05-07 07:00 53.22475 0.99526 36084 ft 481 kts 277°
2026-05-07 07:00 53.23227 0.88434 36088 ft 481 kts 277°
2026-05-07 07:01 53.23992 0.77338 36087 ft 481 kts 277°
2026-05-07 07:01 53.24747 0.66312 36080 ft 481 kts 277°
2026-05-07 07:02 53.25496 0.55207 36081 ft 480 kts 277°
2026-05-07 07:02 53.26232 0.44130 36081 ft 480 kts 277°
2026-05-07 07:03 53.26957 0.33057 36078 ft 480 kts 277°
2026-05-07 07:03 53.27672 0.21980 36079 ft 480 kts 277°
2026-05-07 07:04 53.28376 0.10894 36079 ft 480 kts 277°
2026-05-07 07:04 53.29007 0.01685 36083 ft 480 kts 278°
2026-05-07 07:05 53.30057 -0.09316 36075 ft 479 kts 280°
2026-05-07 07:05 53.31217 -0.20275 36077 ft 479 kts 281°
2026-05-07 07:06 53.32366 -0.31239 36078 ft 479 kts 280°
2026-05-07 07:06 53.33488 -0.42221 36072 ft 479 kts 280°
2026-05-07 07:07 53.34582 -0.53210 36072 ft 479 kts 280°
2026-05-07 07:07 53.35667 -0.64135 36071 ft 478 kts 280°
2026-05-07 07:08 53.36748 -0.75129 36074 ft 479 kts 279°
2026-05-07 07:08 53.37825 -0.86131 36070 ft 479 kts 279°
2026-05-07 07:09 53.38889 -0.97136 36075 ft 479 kts 279°
2026-05-07 07:09 53.39938 -1.08145 36070 ft 479 kts 279°
2026-05-07 07:10 53.40983 -1.19168 36071 ft 479 kts 279°
2026-05-07 07:10 53.42014 -1.30192 36068 ft 479 kts 279°
2026-05-07 07:11 53.43036 -1.41221 36068 ft 479 kts 279°
2026-05-07 07:11 53.44054 -1.52260 36059 ft 479 kts 279°
2026-05-07 07:12 53.45053 -1.63281 36068 ft 479 kts 279°
2026-05-07 07:12 53.46048 -1.74346 36059 ft 479 kts 279°
2026-05-07 07:13 53.47032 -1.85410 36064 ft 480 kts 279°
2026-05-07 07:13 53.48003 -1.96485 36050 ft 479 kts 278°
2026-05-07 07:14 53.48969 -2.07551 36046 ft 479 kts 278°
2026-05-07 07:14 53.49921 -2.18589 36045 ft 480 kts 278°
2026-05-07 07:15 53.50858 -2.29703 36040 ft 480 kts 278°
2026-05-07 07:15 53.51790 -2.40815 36042 ft 481 kts 278°
2026-05-07 07:16 53.52719 -2.51941 36040 ft 480 kts 278°
2026-05-07 07:16 53.53636 -2.63043 36033 ft 480 kts 277°
2026-05-07 07:17 53.54545 -2.74178 36036 ft 480 kts 277°
2026-05-07 07:17 53.55442 -2.85300 36046 ft 480 kts 277°
2026-05-07 07:18 53.56330 -2.96440 36045 ft 481 kts 277°
2026-05-07 07:18 53.57202 -3.07514 36043 ft 480 kts 277°
2026-05-07 07:19 53.58073 -3.18724 36052 ft 480 kts 277°
2026-05-07 07:19 53.58925 -3.29816 36041 ft 481 kts 276°
2026-05-07 07:20 53.59770 -3.40961 36033 ft 480 kts 277°
2026-05-07 07:20 53.60607 -3.52134 36025 ft 481 kts 276°
2026-05-07 07:21 53.61388 -3.63313 36018 ft 480 kts 276°
2026-05-07 07:21 53.61988 -3.74490 35998 ft 479 kts 273°
2026-05-07 07:22 53.62433 -3.85710 35998 ft 479 kts 273°
2026-05-07 07:22 53.62865 -3.96920 35995 ft 479 kts 273°
2026-05-07 07:23 53.63299 -4.08132 36002 ft 479 kts 273°
2026-05-07 07:23 53.63729 -4.19325 35993 ft 479 kts 272°
2026-05-07 07:24 53.64153 -4.30518 35990 ft 478 kts 273°
2026-05-07 07:24 53.64563 -4.41703 35990 ft 478 kts 272°
2026-05-07 07:25 53.65159 -4.58503 35991 ft 478 kts 272°
2026-05-07 07:26 53.65548 -4.69663 35989 ft 476 kts 271°
2026-05-07 07:26 53.65926 -4.80762 35988 ft 474 kts 272°
2026-05-07 07:27 53.66285 -4.91865 35988 ft 474 kts 272°
2026-05-07 07:27 53.66635 -5.02922 35982 ft 473 kts 272°
2026-05-07 07:28 53.66981 -5.13951 35981 ft 474 kts 271°
2026-05-07 07:28 53.67304 -5.25040 35978 ft 473 kts 271°
2026-05-07 07:29 53.67619 -5.36124 35980 ft 473 kts 272°
2026-05-07 07:29 53.67935 -5.47182 35979 ft 472 kts 272°
2026-05-07 07:30 53.68489 -5.58247 35978 ft 473 kts 274°
2026-05-07 07:30 53.69198 -5.69285 35980 ft 473 kts 274°
2026-05-07 07:31 53.69906 -5.80336 35976 ft 474 kts 275°
2026-05-07 07:31 53.70584 -5.91325 35975 ft 473 kts 274°
2026-05-07 07:32 53.71248 -6.02371 35971 ft 473 kts 274°
2026-05-07 07:32 53.71900 -6.13436 35966 ft 473 kts 275°
2026-05-07 07:33 53.72544 -6.24488 35969 ft 473 kts 275°
2026-05-07 07:33 53.73177 -6.35551 35966 ft 474 kts 274°
2026-05-07 07:34 53.73801 -6.46640 35964 ft 474 kts 274°
2026-05-07 07:34 53.74414 -6.57711 35960 ft 474 kts 274°
2026-05-07 07:35 53.75017 -6.68797 35953 ft 473 kts 274°
2026-05-07 07:35 53.75610 -6.79880 35960 ft 474 kts 274°
2026-05-07 07:36 53.76176 -6.90966 35952 ft 473 kts 273°
2026-05-07 07:36 53.76694 -7.02047 35952 ft 473 kts 273°
2026-05-07 07:37 53.77232 -7.13139 35949 ft 473 kts 273°
2026-05-07 07:37 53.77780 -7.24218 35960 ft 473 kts 273°
2026-05-07 07:38 53.78368 -7.35250 35950 ft 470 kts 274°
2026-05-07 07:38 53.79022 -7.46230 35947 ft 469 kts 274°
2026-05-07 07:39 53.79679 -7.57146 35942 ft 469 kts 274°
2026-05-07 07:39 53.80327 -7.68115 35939 ft 469 kts 274°
2026-05-07 07:40 53.80963 -7.79101 35933 ft 469 kts 274°
2026-05-07 07:40 53.81587 -7.90082 35934 ft 468 kts 274°
2026-05-07 07:41 53.82200 -8.01058 35926 ft 468 kts 274°
2026-05-07 07:41 53.82803 -8.12027 35927 ft 468 kts 273°
2026-05-07 07:42 53.83396 -8.23001 35923 ft 468 kts 273°
2026-05-07 07:42 53.83978 -8.33941 35922 ft 468 kts 273°
2026-05-07 07:43 53.84551 -8.44917 35916 ft 468 kts 273°
2026-05-07 07:43 53.85113 -8.55888 35912 ft 467 kts 273°
2026-05-07 07:44 53.85664 -8.66854 35912 ft 467 kts 272°
2026-05-07 07:44 53.86154 -8.77762 35911 ft 467 kts 272°
2026-05-07 07:45 53.86649 -8.88736 35910 ft 467 kts 272°
2026-05-07 07:45 53.87162 -8.99724 35912 ft 466 kts 272°
2026-05-07 07:46 53.87674 -9.10679 35912 ft 466 kts 272°
2026-05-07 07:46 53.88176 -9.21639 35909 ft 466 kts 272°
2026-05-07 07:47 53.88667 -9.32594 35920 ft 466 kts 272°
2026-05-07 07:47 53.89146 -9.43498 35909 ft 463 kts 272°
2026-05-07 07:48 53.89613 -9.54372 35913 ft 462 kts 271°
2026-05-07 07:48 53.90070 -9.65240 35911 ft 462 kts 271°
2026-05-07 07:49 53.90516 -9.76103 35915 ft 462 kts 271°
2026-05-07 07:49 53.90953 -9.86972 35914 ft 462 kts 271°
2026-05-07 07:50 53.91380 -9.97830 35917 ft 461 kts 271°
2026-05-07 07:50 53.91727 -10.06857 35917 ft 461 kts 271°
2026-05-07 07:51 53.92088 -10.17717 35907 ft 461 kts 270°
2026-05-07 07:51 53.92509 -10.30339 35908 ft 461 kts 270°
2026-05-07 07:52 53.92827 -10.39428 35908 ft 461 kts 271°
2026-05-07 07:52 53.93206 -10.50290 35909 ft 461 kts 270°
2026-05-07 07:53 53.93577 -10.61151 35904 ft 461 kts 270°
2026-05-07 07:53 53.93937 -10.72009 35904 ft 461 kts 270°
2026-05-07 07:54 53.94286 -10.82864 35905 ft 460 kts 270°
2026-05-07 07:54 53.94623 -10.93652 35906 ft 461 kts 270°
2026-05-07 07:55 53.94953 -11.04517 35898 ft 461 kts 270°
2026-05-07 07:55 53.95273 -11.15373 35898 ft 461 kts 270°
2026-05-07 07:56 53.95583 -11.26236 35894 ft 461 kts 270°
2026-05-07 07:56 53.95883 -11.37098 35895 ft 461 kts 270°
2026-05-07 07:57 53.96172 -11.47917 35902 ft 457 kts 269°
2026-05-07 07:57 53.96402 -11.58665 35899 ft 456 kts 269°
2026-05-07 07:58 53.96632 -11.69457 35894 ft 456 kts 269°
2026-05-07 07:58 53.96881 -11.80215 35895 ft 456 kts 269°
2026-05-07 07:59 53.97130 -11.90981 35888 ft 456 kts 269°
2026-05-07 07:59 53.97369 -12.01681 35897 ft 456 kts 269°
2026-05-07 08:00 53.97599 -12.12445 35886 ft 456 kts 269°
2026-05-07 08:00 53.97819 -12.23198 35900 ft 455 kts 268°
2026-05-07 08:01 53.98029 -12.33940 35889 ft 455 kts 268°
2026-05-07 08:01 53.98229 -12.44680 35893 ft 455 kts 268°
2026-05-07 08:02 53.98420 -12.55429 35896 ft 455 kts 268°
2026-05-07 08:02 53.98601 -12.66178 35882 ft 455 kts 268°
2026-05-07 08:03 53.98773 -12.76921 35893 ft 455 kts 268°
2026-05-07 08:03 53.98935 -12.87660 35884 ft 455 kts 268°
2026-05-07 08:04 53.99045 -12.98403 35896 ft 454 kts 267°
2026-05-07 08:04 53.99146 -13.09134 35896 ft 454 kts 268°
2026-05-07 08:05 53.99266 -13.19875 35893 ft 454 kts 268°
2026-05-07 08:05 53.99390 -13.30615 35898 ft 454 kts 268°
2026-05-07 08:06 53.99504 -13.41262 35896 ft 453 kts 268°
2026-05-07 08:06 53.99608 -13.51964 35899 ft 452 kts 267°
2026-05-07 08:07 53.99703 -13.62614 35892 ft 450 kts 267°
2026-05-07 08:07 53.99787 -13.73257 35894 ft 450 kts 267°
2026-05-07 08:08 53.99862 -13.83903 35906 ft 450 kts 267°
2026-05-07 08:08 53.99927 -13.94513 35890 ft 449 kts 267°
2026-05-07 08:09 53.99983 -14.05133 35896 ft 449 kts 267°
2026-05-07 08:09 54.00030 -14.15742 35897 ft 449 kts 267°
2026-05-07 08:10 54.00067 -14.26352 35903 ft 449 kts 267°
2026-05-07 08:10 54.00067 -14.36884 35903 ft 448 kts 267°
2026-05-07 08:11 54.00037 -14.47483 35901 ft 448 kts 267°
2026-05-07 08:11 54.00028 -14.58080 35898 ft 448 kts 267°
2026-05-07 08:12 54.00026 -14.68687 35906 ft 448 kts 267°
2026-05-07 08:12 54.00018 -14.79256 35904 ft 448 kts 267°
2026-05-07 08:13 54.00000 -14.89850 35915 ft 448 kts 267°
2026-05-07 08:13 54.00016 -15.00435 35904 ft 448 kts 268°
2026-05-07 08:14 54.00194 -15.11023 35913 ft 448 kts 269°
2026-05-07 08:14 54.00415 -15.21619 35906 ft 448 kts 269°
2026-05-07 08:15 54.00627 -15.32214 35910 ft 448 kts 269°
2026-05-07 08:15 54.00823 -15.42735 35913 ft 448 kts 269°
2026-05-07 08:16 54.01007 -15.53311 35919 ft 447 kts 269°
2026-05-07 08:16 54.01182 -15.63866 35916 ft 446 kts 269°
2026-05-07 08:17 54.01348 -15.74412 35916 ft 446 kts 269°
2026-05-07 08:17 54.01505 -15.84964 35918 ft 446 kts 269°
2026-05-07 08:18 54.01652 -15.95519 35918 ft 446 kts 269°
2026-05-07 08:18 54.01790 -16.06076 35926 ft 447 kts 269°
2026-05-07 08:19 54.01919 -16.16648 35926 ft 447 kts 269°
2026-05-07 08:19 54.02038 -16.27233 35925 ft 447 kts 269°
2026-05-07 08:20 54.02146 -16.37809 35925 ft 447 kts 269°
2026-05-07 08:20 54.02194 -16.48384 35928 ft 447 kts 268°
2026-05-07 08:21 54.02253 -16.58962 35925 ft 447 kts 269°
2026-05-07 08:21 54.02328 -16.69541 35930 ft 447 kts 269°
2026-05-07 08:22 54.02401 -16.80118 35934 ft 447 kts 269°
2026-05-07 08:22 54.02466 -16.90708 35936 ft 447 kts 269°
2026-05-07 08:23 54.02521 -17.01287 35932 ft 447 kts 268°
2026-05-07 08:23 54.02566 -17.11874 35943 ft 448 kts 269°
2026-05-07 08:24 54.02602 -17.22481 35960 ft 449 kts 268°
2026-05-07 08:24 54.02628 -17.33120 35948 ft 450 kts 268°
2026-05-07 08:25 54.02646 -17.43776 35945 ft 450 kts 268°
2026-05-07 08:25 54.02654 -17.54359 35952 ft 450 kts 268°
2026-05-07 08:26 54.02648 -17.70350 35953 ft 452 kts 268°
2026-05-07 08:26 54.02622 -17.81041 35953 ft 452 kts 268°
2026-05-07 08:27 54.02542 -17.91709 35956 ft 452 kts 268°
2026-05-07 08:27 54.02480 -18.02400 35961 ft 452 kts 268°
2026-05-07 08:28 54.02431 -18.13090 35956 ft 452 kts 268°
2026-05-07 08:28 54.02378 -18.23799 35967 ft 453 kts 268°
2026-05-07 08:29 54.02315 -18.34516 35965 ft 453 kts 268°
2026-05-07 08:29 54.02243 -18.45231 35971 ft 453 kts 268°
2026-05-07 08:30 54.02160 -18.55943 35971 ft 453 kts 268°
2026-05-07 08:30 54.02069 -18.66584 35978 ft 453 kts 268°
2026-05-07 08:31 54.01967 -18.77307 35974 ft 453 kts 268°
2026-05-07 08:31 54.01856 -18.88029 35978 ft 454 kts 268°
2026-05-07 08:32 54.01735 -18.98775 35995 ft 454 kts 268°
2026-05-07 08:32 54.01604 -19.09516 35986 ft 454 kts 268°
2026-05-07 08:33 54.01461 -19.20259 35988 ft 454 kts 268°
2026-05-07 08:33 54.01259 -19.30994 35991 ft 454 kts 267°
2026-05-07 08:34 54.01065 -19.41739 35993 ft 455 kts 268°
2026-05-07 08:34 54.00889 -19.52486 35999 ft 455 kts 268°
2026-05-07 08:35 54.00711 -19.63226 35999 ft 455 kts 268°
2026-05-07 08:35 54.00525 -19.73902 35999 ft 455 kts 268°
2026-05-07 08:36 54.00327 -19.84641 36004 ft 455 kts 268°
2026-05-07 08:36 54.00046 -19.95385 36003 ft 455 kts 265°
2026-05-07 08:37 53.99466 -20.06083 36008 ft 455 kts 264°
2026-05-07 08:37 53.98825 -20.16773 36006 ft 455 kts 264°
2026-05-07 08:38 53.98197 -20.27460 36015 ft 455 kts 264°
2026-05-07 08:38 53.97679 -20.36344 36015 ft 455 kts 264°
2026-05-07 08:39 53.97050 -20.47029 36018 ft 454 kts 264°
2026-05-07 08:39 53.96413 -20.57709 36019 ft 454 kts 264°
2026-05-07 08:40 53.95765 -20.68379 36025 ft 454 kts 264°
2026-05-07 08:40 53.95108 -20.79047 36023 ft 454 kts 264°
2026-05-07 08:41 53.94441 -20.89717 36026 ft 454 kts 264°
2026-05-07 08:41 53.93765 -21.00373 36033 ft 454 kts 264°
2026-05-07 08:42 53.93082 -21.11002 36031 ft 454 kts 264°
2026-05-07 08:42 53.92387 -21.21658 36031 ft 454 kts 264°
2026-05-07 08:43 53.91680 -21.32312 36037 ft 454 kts 264°
2026-05-07 08:43 53.90913 -21.42965 36038 ft 454 kts 264°
2026-05-07 08:44 53.90156 -21.53611 36040 ft 455 kts 264°
2026-05-07 08:44 53.89414 -21.64267 36041 ft 455 kts 264°
2026-05-07 08:45 53.88676 -21.74857 36043 ft 455 kts 264°
2026-05-07 08:45 53.87923 -21.85520 36045 ft 455 kts 264°
2026-05-07 08:46 53.87160 -21.96182 36046 ft 455 kts 264°
2026-05-07 08:46 53.86388 -22.06824 36045 ft 455 kts 264°
2026-05-07 08:47 53.85606 -22.17484 36054 ft 455 kts 264°
2026-05-07 08:47 53.84815 -22.28120 36054 ft 455 kts 264°
2026-05-07 08:48 53.84014 -22.38756 36053 ft 455 kts 264°
2026-05-07 08:48 53.83205 -22.49388 36054 ft 455 kts 263°
2026-05-07 08:49 53.82384 -22.60026 36061 ft 456 kts 264°
2026-05-07 08:49 53.81553 -22.70673 36061 ft 456 kts 264°
2026-05-07 08:50 53.80666 -22.81308 36067 ft 456 kts 263°
2026-05-07 08:50 53.79785 -22.91866 36067 ft 456 kts 263°
2026-05-07 08:51 53.78916 -23.02501 36072 ft 456 kts 263°
2026-05-07 08:51 53.78047 -23.13141 36070 ft 457 kts 264°
2026-05-07 08:52 53.77169 -23.23788 36075 ft 457 kts 264°
2026-05-07 08:52 53.76280 -23.34437 36075 ft 457 kts 264°
2026-05-07 08:53 53.75381 -23.45079 36078 ft 457 kts 263°
2026-05-07 08:53 53.74473 -23.55714 36078 ft 457 kts 263°
2026-05-07 08:54 53.73556 -23.66338 36081 ft 457 kts 264°
2026-05-07 08:54 53.72629 -23.76967 36082 ft 458 kts 264°
2026-05-07 08:55 53.71698 -23.87524 36085 ft 457 kts 263°
2026-05-07 08:55 53.70752 -23.98144 36084 ft 458 kts 263°
2026-05-07 08:56 53.69796 -24.08767 36091 ft 458 kts 263°
2026-05-07 08:56 53.68787 -24.19382 36089 ft 459 kts 263°
2026-05-07 08:57 53.67773 -24.29979 36094 ft 459 kts 263°
2026-05-07 08:57 53.66776 -24.40606 36095 ft 459 kts 263°
2026-05-07 08:58 53.65779 -24.51238 36096 ft 459 kts 263°
2026-05-07 08:58 53.64774 -24.61864 36097 ft 459 kts 263°
2026-05-07 08:59 53.63759 -24.72492 36094 ft 460 kts 264°
2026-05-07 08:59 53.62733 -24.83124 36101 ft 460 kts 264°
2026-05-07 09:00 53.61697 -24.93753 36103 ft 460 kts 264°
2026-05-07 09:00 53.60652 -25.04374 36114 ft 460 kts 263°
2026-05-07 09:01 53.59596 -25.14998 36085 ft 460 kts 264°
2026-05-07 09:01 53.58533 -25.25607 36113 ft 460 kts 264°
2026-05-07 09:02 53.57458 -25.36225 36115 ft 460 kts 264°
2026-05-07 09:02 53.56374 -25.46835 36118 ft 460 kts 264°
2026-05-07 09:03 53.55238 -25.57438 36120 ft 461 kts 263°
2026-05-07 09:03 53.54094 -25.68039 36098 ft 460 kts 264°
2026-05-07 09:04 53.52970 -25.78632 36119 ft 460 kts 264°
2026-05-07 09:04 53.51849 -25.89220 36121 ft 460 kts 264°
2026-05-07 09:05 53.50728 -25.99729 36121 ft 460 kts 264°
2026-05-07 09:05 53.49587 -26.10320 36124 ft 460 kts 264°
2026-05-07 09:06 53.48437 -26.20893 36109 ft 460 kts 264°
2026-05-07 09:06 53.47277 -26.31460 36133 ft 460 kts 264°
2026-05-07 09:07 53.46110 -26.42011 36136 ft 460 kts 264°
2026-05-07 09:07 53.44933 -26.52568 36136 ft 460 kts 264°
2026-05-07 09:08 53.43746 -26.63113 36135 ft 460 kts 264°
2026-05-07 09:08 53.42550 -26.73654 36109 ft 460 kts 265°
2026-05-07 09:09 53.41346 -26.84170 36132 ft 459 kts 265°
2026-05-07 09:09 53.40091 -26.94679 36146 ft 460 kts 264°
2026-05-07 09:10 53.38829 -27.05180 36141 ft 460 kts 264°
2026-05-07 09:10 53.37587 -27.15678 36145 ft 460 kts 264°
2026-05-07 09:11 53.36354 -27.26116 36150 ft 460 kts 264°
2026-05-07 09:11 53.35105 -27.36609 36153 ft 460 kts 264°
2026-05-07 09:12 53.33849 -27.47067 36143 ft 460 kts 264°
2026-05-07 09:12 53.32580 -27.57551 36157 ft 460 kts 264°
2026-05-07 09:13 53.31301 -27.68038 36155 ft 459 kts 264°
2026-05-07 09:13 53.30014 -27.78490 36151 ft 458 kts 265°
2026-05-07 09:14 53.28724 -27.88912 36156 ft 458 kts 265°
2026-05-07 09:14 53.27423 -27.99337 36157 ft 458 kts 265°
2026-05-07 09:15 53.26112 -28.09757 36165 ft 458 kts 265°
2026-05-07 09:15 53.24793 -28.20169 36167 ft 458 kts 264°
2026-05-07 09:16 53.23424 -28.30555 36158 ft 458 kts 264°
2026-05-07 09:16 53.22048 -28.40930 36170 ft 458 kts 265°
2026-05-07 09:17 53.20701 -28.51232 36171 ft 457 kts 265°
2026-05-07 09:17 53.19348 -28.61598 36170 ft 458 kts 265°
2026-05-07 09:18 53.17986 -28.71970 36170 ft 458 kts 264°
2026-05-07 09:18 53.16615 -28.82314 36165 ft 457 kts 265°
2026-05-07 09:19 53.15237 -28.92647 36185 ft 457 kts 265°
2026-05-07 09:19 53.13849 -29.02974 36180 ft 457 kts 264°
2026-05-07 09:20 53.12453 -29.13294 36180 ft 457 kts 264°
2026-05-07 09:20 53.11047 -29.23609 36184 ft 457 kts 264°
2026-05-07 09:21 53.09633 -29.33913 36180 ft 457 kts 264°
2026-05-07 09:21 53.08209 -29.44217 36186 ft 457 kts 264°
2026-05-07 09:22 53.06776 -29.54516 36186 ft 457 kts 264°
2026-05-07 09:22 53.05297 -29.64806 36187 ft 458 kts 264°
2026-05-07 09:23 53.03805 -29.75082 36147 ft 457 kts 264°
2026-05-07 09:23 53.02330 -29.85370 36191 ft 458 kts 264°
2026-05-07 09:24 53.01108 -29.93913 36195 ft 457 kts 264°
2026-05-07 09:24 52.99632 -30.04190 36198 ft 458 kts 264°
2026-05-07 09:25 52.97954 -30.16130 36194 ft 456 kts 265°
2026-05-07 09:25 52.96975 -30.24764 36145 ft 454 kts 267°
2026-05-07 09:26 52.95906 -30.35094 36195 ft 455 kts 267°
2026-05-07 09:26 52.94827 -30.45435 36197 ft 455 kts 267°
2026-05-07 09:27 52.93729 -30.55741 36202 ft 455 kts 267°
2026-05-07 09:28 52.92052 -30.71237 36208 ft 455 kts 267°
2026-05-07 09:28 52.90929 -30.81497 36199 ft 456 kts 266°
2026-05-07 09:29 52.89789 -30.91835 36205 ft 456 kts 266°
2026-05-07 09:29 52.88640 -31.02165 36206 ft 456 kts 266°
2026-05-07 09:30 52.87481 -31.12497 36210 ft 456 kts 266°
2026-05-07 09:30 52.86313 -31.22821 36215 ft 456 kts 266°
2026-05-07 09:31 52.85137 -31.33139 36201 ft 457 kts 266°
2026-05-07 09:31 52.83950 -31.43465 36216 ft 457 kts 266°
2026-05-07 09:32 52.82731 -31.53768 36210 ft 456 kts 265°
2026-05-07 09:32 52.81480 -31.64056 36212 ft 456 kts 266°
2026-05-07 09:33 52.80250 -31.74345 36215 ft 456 kts 266°
2026-05-07 09:33 52.79029 -31.84620 36210 ft 456 kts 266°
2026-05-07 09:34 52.77799 -31.94912 36222 ft 457 kts 266°
2026-05-07 09:34 52.76568 -32.05123 36222 ft 457 kts 266°
2026-05-07 09:35 52.75320 -32.15399 36223 ft 457 kts 265°
2026-05-07 09:35 52.74062 -32.25672 36220 ft 457 kts 265°
2026-05-07 09:36 52.72795 -32.35942 36220 ft 457 kts 265°
2026-05-07 09:36 52.71518 -32.46220 36224 ft 457 kts 265°
2026-05-07 09:37 52.70232 -32.56485 36224 ft 457 kts 265°
2026-05-07 09:37 52.68938 -32.66735 36230 ft 457 kts 265°
2026-05-07 09:38 52.67634 -32.76991 36231 ft 457 kts 265°
2026-05-07 09:38 52.66303 -32.87236 36222 ft 458 kts 264°
2026-05-07 09:39 52.64930 -32.97495 36230 ft 458 kts 264°
2026-05-07 09:39 52.63577 -33.07741 36233 ft 457 kts 265°
2026-05-07 09:40 52.62236 -33.17962 36237 ft 457 kts 265°
2026-05-07 09:40 52.60899 -33.28111 36235 ft 457 kts 264°
2026-05-07 09:41 52.59545 -33.38326 36228 ft 458 kts 264°
2026-05-07 09:41 52.58174 -33.48575 36237 ft 458 kts 264°
2026-05-07 09:42 52.56795 -33.58807 36236 ft 458 kts 264°
2026-05-07 09:42 52.55410 -33.69016 36241 ft 459 kts 264°
2026-05-07 09:43 52.54022 -33.79178 36246 ft 459 kts 264°
2026-05-07 09:43 52.52617 -33.89400 36235 ft 460 kts 264°
2026-05-07 09:44 52.51199 -33.99644 36246 ft 460 kts 264°
2026-05-07 09:44 52.49770 -34.09890 36249 ft 460 kts 264°
2026-05-07 09:45 52.48316 -34.20124 36245 ft 461 kts 263°
2026-05-07 09:45 52.46820 -34.30346 36261 ft 461 kts 263°
2026-05-07 09:46 52.45340 -34.40592 36248 ft 462 kts 263°
2026-05-07 09:46 52.43869 -34.50842 36252 ft 462 kts 263°
2026-05-07 09:47 52.42391 -34.61090 36245 ft 462 kts 263°
2026-05-07 09:47 52.40905 -34.71330 36254 ft 462 kts 263°
2026-05-07 09:48 52.39409 -34.81567 36256 ft 462 kts 263°
2026-05-07 09:48 52.37905 -34.91791 36263 ft 462 kts 263°
2026-05-07 09:49 52.36391 -35.02015 36258 ft 462 kts 263°
2026-05-07 09:49 52.34868 -35.12229 36266 ft 462 kts 263°
2026-05-07 09:50 52.33336 -35.22440 36261 ft 462 kts 263°
2026-05-07 09:50 52.31803 -35.32593 36270 ft 462 kts 263°
2026-05-07 09:51 52.30252 -35.42790 36259 ft 461 kts 263°
2026-05-07 09:51 52.28679 -35.52947 36267 ft 462 kts 263°
2026-05-07 09:52 52.27068 -35.63097 36269 ft 462 kts 263°
2026-05-07 09:52 52.25474 -35.73255 36271 ft 462 kts 263°
2026-05-07 09:53 52.23890 -35.83408 36239 ft 461 kts 263°
2026-05-07 09:53 52.22303 -35.93532 36270 ft 461 kts 263°
2026-05-07 09:54 52.20706 -36.03656 36273 ft 461 kts 263°
2026-05-07 09:54 52.19101 -36.13768 36269 ft 461 kts 263°
2026-05-07 09:55 52.17488 -36.23866 36276 ft 460 kts 263°
2026-05-07 09:55 52.15866 -36.33957 36254 ft 461 kts 263°
2026-05-07 09:56 52.14233 -36.44063 36274 ft 462 kts 263°
2026-05-07 09:56 52.12586 -36.54185 36274 ft 462 kts 263°
2026-05-07 09:57 52.10944 -36.64218 36278 ft 462 kts 262°
2026-05-07 09:57 52.09287 -36.74279 36279 ft 462 kts 262°
2026-05-07 09:58 52.07597 -36.84355 36261 ft 462 kts 262°
2026-05-07 09:58 52.05871 -36.94433 36275 ft 463 kts 262°
2026-05-07 09:59 52.04163 -37.04508 36274 ft 463 kts 262°
2026-05-07 09:59 52.02461 -37.14592 36279 ft 463 kts 262°
2026-05-07 10:00 52.00757 -37.24654 36279 ft 463 kts 262°
2026-05-07 10:00 51.99040 -37.34726 36282 ft 463 kts 262°
2026-05-07 10:01 51.97315 -37.44783 36285 ft 463 kts 262°
2026-05-07 10:01 51.95582 -37.54835 36274 ft 463 kts 262°
2026-05-07 10:02 51.93838 -37.64886 36261 ft 463 kts 262°
2026-05-07 10:02 51.92087 -37.74918 36280 ft 463 kts 261°
2026-05-07 10:03 51.90329 -37.84944 36272 ft 463 kts 261°
2026-05-07 10:03 51.88558 -37.94984 36276 ft 464 kts 261°
2026-05-07 10:04 51.86780 -38.05004 36276 ft 464 kts 261°
2026-05-07 10:04 51.84965 -38.15024 36276 ft 464 kts 261°
2026-05-07 10:05 51.83125 -38.25022 36275 ft 464 kts 261°
2026-05-07 10:05 51.81302 -38.35033 36274 ft 464 kts 260°
2026-05-07 10:06 51.79486 -38.45035 36272 ft 464 kts 260°
2026-05-07 10:06 51.77664 -38.55032 36274 ft 464 kts 260°
2026-05-07 10:07 51.75840 -38.64980 36277 ft 464 kts 260°
2026-05-07 10:07 51.73997 -38.74971 36255 ft 464 kts 260°
2026-05-07 10:08 51.72145 -38.84961 36278 ft 465 kts 260°
2026-05-07 10:08 51.70282 -38.94955 36279 ft 465 kts 259°
2026-05-07 10:09 51.68411 -39.04935 36276 ft 465 kts 259°
2026-05-07 10:09 51.66541 -39.14857 36273 ft 465 kts 259°
2026-05-07 10:10 51.64657 -39.24800 36276 ft 464 kts 259°
2026-05-07 10:10 51.62767 -39.34729 36286 ft 464 kts 259°
2026-05-07 10:11 51.60834 -39.44656 36281 ft 465 kts 258°
2026-05-07 10:11 51.58885 -39.54560 36275 ft 465 kts 259°
2026-05-07 10:12 51.57280 -39.62798 36280 ft 464 kts 259°
2026-05-07 10:12 51.55357 -39.72689 36271 ft 466 kts 259°
2026-05-07 10:13 51.53417 -39.82627 36273 ft 466 kts 259°
2026-05-07 10:13 51.51469 -39.92553 36276 ft 466 kts 258°
2026-05-07 10:14 51.49693 -40.02528 36278 ft 462 kts 264°
2026-05-07 10:14 51.48559 -40.12622 36275 ft 459 kts 267°
2026-05-07 10:15 51.47571 -40.22752 36561 ft 460 kts 267°
2026-05-07 10:15 51.47064 -40.27816 36851 ft 459 kts 266°
2026-05-07 10:15 51.46546 -40.32861 37141 ft 458 kts 266°
2026-05-07 10:15 51.46021 -40.37891 37421 ft 457 kts 266°
2026-05-07 10:16 51.45490 -40.42912 37692 ft 456 kts 266°
2026-05-07 10:16 51.44957 -40.47922 37956 ft 455 kts 266°
2026-05-07 10:16 51.44423 -40.52921 38203 ft 455 kts 266°
2026-05-07 10:17 51.43350 -40.62900 38263 ft 454 kts 266°
2026-05-07 10:17 51.42270 -40.72874 38254 ft 454 kts 266°
2026-05-07 10:18 51.41188 -40.82789 38266 ft 455 kts 266°
2026-05-07 10:18 51.40081 -40.92835 38260 ft 455 kts 266°
2026-05-07 10:19 51.38980 -41.02754 38260 ft 455 kts 266°
2026-05-07 10:19 51.37862 -41.12740 38257 ft 455 kts 266°
2026-05-07 10:20 51.36735 -41.22720 38235 ft 455 kts 265°
2026-05-07 10:20 51.35587 -41.32692 38254 ft 456 kts 265°
2026-05-07 10:21 51.34396 -41.42650 38248 ft 454 kts 264°
2026-05-07 10:21 51.33227 -41.52561 38248 ft 453 kts 265°
2026-05-07 10:22 51.32070 -41.62471 38251 ft 453 kts 265°
2026-05-07 10:22 51.30909 -41.72371 38248 ft 453 kts 265°
2026-05-07 10:23 51.29739 -41.82267 38236 ft 453 kts 264°
2026-05-07 10:23 51.28559 -41.92169 38253 ft 453 kts 264°
2026-05-07 10:24 51.27379 -42.01996 38244 ft 453 kts 264°
2026-05-07 10:24 51.26182 -42.11880 38239 ft 453 kts 264°
2026-05-07 10:25 51.24976 -42.21772 38251 ft 454 kts 264°
2026-05-07 10:25 51.23762 -42.31657 38241 ft 454 kts 264°
2026-05-07 10:26 51.22541 -42.41520 38241 ft 452 kts 264°
2026-05-07 10:26 51.21317 -42.51339 38241 ft 451 kts 264°
2026-05-07 10:27 51.20081 -42.61140 38239 ft 451 kts 263°
2026-05-07 10:27 51.18806 -42.70840 38236 ft 451 kts 263°
2026-05-07 10:28 51.17531 -42.80633 38222 ft 451 kts 263°
2026-05-07 10:28 51.16267 -42.90442 38240 ft 452 kts 263°
2026-05-07 10:29 51.14999 -43.00262 38238 ft 452 kts 263°
2026-05-07 10:29 51.13724 -43.10072 38238 ft 452 kts 263°
2026-05-07 10:30 51.11794 -43.24779 38241 ft 452 kts 263°
2026-05-07 10:30 51.10497 -43.34580 38233 ft 453 kts 263°
2026-05-07 10:31 51.09188 -43.44400 38234 ft 454 kts 262°
2026-05-07 10:31 51.07871 -43.54212 38236 ft 454 kts 262°
2026-05-07 10:32 51.06546 -43.64019 38235 ft 454 kts 262°
2026-05-07 10:32 51.05212 -43.73825 38235 ft 454 kts 262°
2026-05-07 10:33 51.03870 -43.83622 38220 ft 454 kts 262°
2026-05-07 10:33 51.02500 -43.93425 38237 ft 455 kts 261°
2026-05-07 10:34 51.01102 -44.03160 38232 ft 455 kts 261°
2026-05-07 10:34 50.99712 -44.12966 38233 ft 455 kts 261°
2026-05-07 10:35 50.98330 -44.22776 38233 ft 455 kts 261°
2026-05-07 10:35 50.96944 -44.32577 38227 ft 455 kts 261°
2026-05-07 10:36 50.95550 -44.42364 38232 ft 455 kts 261°
2026-05-07 10:36 50.94147 -44.52149 38230 ft 455 kts 261°
2026-05-07 10:37 50.92737 -44.61918 38229 ft 455 kts 261°
2026-05-07 10:37 50.91315 -44.71705 38231 ft 455 kts 261°
2026-05-07 10:38 50.89897 -44.81405 38231 ft 455 kts 261°
2026-05-07 10:38 50.88461 -44.91172 38241 ft 456 kts 260°
2026-05-07 10:39 50.87013 -45.00949 38219 ft 456 kts 260°
2026-05-07 10:39 50.85556 -45.10728 38233 ft 456 kts 260°
2026-05-07 10:40 50.84080 -45.20498 38222 ft 457 kts 260°
2026-05-07 10:40 50.82560 -45.30251 38221 ft 456 kts 259°
2026-05-07 10:41 50.81061 -45.39977 38232 ft 455 kts 259°
2026-05-07 10:41 50.79571 -45.49713 38222 ft 456 kts 259°
2026-05-07 10:42 50.78079 -45.59430 38228 ft 456 kts 259°
2026-05-07 10:42 50.76577 -45.69156 38226 ft 456 kts 259°
2026-05-07 10:43 50.75063 -45.78889 38225 ft 456 kts 259°
2026-05-07 10:43 50.73543 -45.88608 38221 ft 456 kts 259°
2026-05-07 10:44 50.72014 -45.98323 38227 ft 456 kts 259°
2026-05-07 10:44 50.70476 -46.08041 38230 ft 457 kts 258°
2026-05-07 10:45 50.68929 -46.17756 38230 ft 457 kts 258°
2026-05-07 10:45 50.67375 -46.27455 38223 ft 455 kts 258°
2026-05-07 10:46 50.65817 -46.37128 38234 ft 455 kts 258°
2026-05-07 10:46 50.64244 -46.46784 38225 ft 455 kts 257°
2026-05-07 10:47 50.62625 -46.56423 38228 ft 455 kts 257°
2026-05-07 10:47 50.61019 -46.66062 38233 ft 455 kts 257°
2026-05-07 10:48 50.59425 -46.75700 38238 ft 455 kts 257°
2026-05-07 10:48 50.57827 -46.85340 38230 ft 455 kts 257°
2026-05-07 10:49 50.56223 -46.94969 38234 ft 455 kts 257°
2026-05-07 10:49 50.54618 -47.04542 38236 ft 455 kts 257°
2026-05-07 10:50 50.52994 -47.14167 38233 ft 456 kts 257°
2026-05-07 10:50 50.51365 -47.23774 38231 ft 454 kts 257°
2026-05-07 10:51 50.49731 -47.33354 38233 ft 454 kts 257°
2026-05-07 10:51 50.48091 -47.42924 38234 ft 454 kts 257°
2026-05-07 10:52 50.46439 -47.52505 38237 ft 454 kts 257°
2026-05-07 10:52 50.44782 -47.62062 38228 ft 454 kts 256°
2026-05-07 10:53 50.43114 -47.71618 38230 ft 454 kts 256°
2026-05-07 10:53 50.41409 -47.81085 38230 ft 454 kts 256°
2026-05-07 10:54 50.39700 -47.90613 38225 ft 454 kts 256°
2026-05-07 10:54 50.38006 -48.00141 38230 ft 454 kts 256°
2026-05-07 10:55 50.36310 -48.09668 38241 ft 454 kts 256°
2026-05-07 10:55 50.34614 -48.19147 38235 ft 452 kts 255°
2026-05-07 10:56 50.32911 -48.28612 38227 ft 451 kts 255°
2026-05-07 10:56 50.31202 -48.38060 38223 ft 451 kts 255°
2026-05-07 10:57 50.29493 -48.47458 38229 ft 450 kts 255°
2026-05-07 10:57 50.27782 -48.56817 38230 ft 450 kts 255°
2026-05-07 10:58 50.26054 -48.66221 38225 ft 450 kts 255°
2026-05-07 10:58 50.24319 -48.75621 38224 ft 450 kts 255°
2026-05-07 10:59 50.22575 -48.85012 38215 ft 450 kts 255°
2026-05-07 10:59 50.20826 -48.94390 38224 ft 450 kts 255°
2026-05-07 11:00 50.19037 -49.03734 38228 ft 448 kts 254°
2026-05-07 11:00 50.17550 -49.11451 38225 ft 446 kts 254°
2026-05-07 11:01 50.15784 -49.20714 38222 ft 446 kts 254°
2026-05-07 11:01 50.14019 -49.29988 38222 ft 446 kts 254°
2026-05-07 11:02 50.12253 -49.39235 38218 ft 444 kts 254°
2026-05-07 11:02 50.10483 -49.48458 38219 ft 444 kts 254°
2026-05-07 11:03 50.08706 -49.57664 38219 ft 444 kts 254°
2026-05-07 11:03 50.06923 -49.66859 38219 ft 444 kts 254°
2026-05-07 11:04 50.05133 -49.76046 38211 ft 444 kts 254°
2026-05-07 11:04 50.03321 -49.85221 38212 ft 442 kts 252°
2026-05-07 11:05 50.01259 -49.94232 38213 ft 442 kts 250°
2026-05-07 11:05 49.99116 -50.03118 38213 ft 442 kts 250°
2026-05-07 11:06 49.96964 -50.12075 38210 ft 442 kts 250°
2026-05-07 11:06 49.94825 -50.21019 38208 ft 442 kts 250°
2026-05-07 11:07 49.92686 -50.29947 38209 ft 440 kts 250°
2026-05-07 11:07 49.90550 -50.38826 38211 ft 439 kts 250°
2026-05-07 11:08 49.88410 -50.47688 38211 ft 438 kts 250°
2026-05-07 11:08 49.86265 -50.56531 38213 ft 438 kts 250°
2026-05-07 11:09 49.84113 -50.65368 38213 ft 438 kts 250°
2026-05-07 11:09 49.81956 -50.74188 38215 ft 436 kts 250°
2026-05-07 11:10 49.79805 -50.82950 38213 ft 435 kts 250°
2026-05-07 11:10 49.77652 -50.91685 38215 ft 432 kts 249°
2026-05-07 11:11 49.75510 -51.00343 38208 ft 430 kts 249°
2026-05-07 11:11 49.73363 -51.08919 38208 ft 430 kts 249°
2026-05-07 11:12 49.71181 -51.17494 38201 ft 430 kts 248°
2026-05-07 11:12 49.69004 -51.26110 38213 ft 430 kts 249°
2026-05-07 11:13 49.66835 -51.34726 38206 ft 430 kts 249°
2026-05-07 11:13 49.64664 -51.43335 38205 ft 430 kts 249°
2026-05-07 11:14 49.62486 -51.51938 38207 ft 430 kts 248°
2026-05-07 11:14 49.60300 -51.60536 38197 ft 431 kts 248°
2026-05-07 11:15 49.58106 -51.69134 38199 ft 431 kts 248°
2026-05-07 11:15 49.55900 -51.77745 38200 ft 432 kts 248°
2026-05-07 11:16 49.53693 -51.86330 38200 ft 432 kts 248°
2026-05-07 11:16 49.51483 -51.94896 38201 ft 429 kts 247°
2026-05-07 11:17 49.49280 -52.03419 38199 ft 429 kts 249°
2026-05-07 11:17 49.47810 -52.12316 38193 ft 431 kts 258°
2026-05-07 11:18 49.46910 -52.21436 38192 ft 431 kts 259°
2026-05-07 11:18 49.46043 -52.30496 38192 ft 431 kts 259°
2026-05-07 11:19 49.45123 -52.39587 38187 ft 431 kts 259°
2026-05-07 11:19 49.44175 -52.48672 38187 ft 431 kts 258°
2026-05-07 11:20 49.43217 -52.57749 38184 ft 431 kts 258°
2026-05-07 11:20 49.42250 -52.66833 38177 ft 430 kts 257°
2026-05-07 11:21 49.41280 -52.75887 38176 ft 430 kts 257°
2026-05-07 11:21 49.40302 -52.84940 38177 ft 430 kts 257°
2026-05-07 11:22 49.39318 -52.93982 38166 ft 429 kts 257°
2026-05-07 11:22 49.38326 -53.03030 38165 ft 429 kts 257°
2026-05-07 11:23 49.37329 -53.12063 38163 ft 429 kts 257°
2026-05-07 11:23 49.36324 -53.21093 38156 ft 430 kts 257°
2026-05-07 11:24 49.35310 -53.30133 38170 ft 430 kts 256°
2026-05-07 11:24 49.34252 -53.39145 38152 ft 429 kts 256°
2026-05-07 11:25 49.33195 -53.48150 38136 ft 429 kts 256°
2026-05-07 11:25 49.32154 -53.57163 38144 ft 429 kts 256°
2026-05-07 11:26 49.31120 -53.66110 38139 ft 429 kts 256°
2026-05-07 11:26 49.30074 -53.75116 38124 ft 429 kts 256°
2026-05-07 11:27 49.29028 -53.84057 38131 ft 427 kts 255°
2026-05-07 11:27 49.27972 -53.93015 38122 ft 427 kts 255°
2026-05-07 11:28 49.26916 -54.01917 38119 ft 422 kts 255°
2026-05-07 11:28 49.25862 -54.10740 38115 ft 421 kts 255°
2026-05-07 11:29 49.24800 -54.19551 38116 ft 421 kts 255°
2026-05-07 11:29 49.23732 -54.28359 38108 ft 421 kts 255°
2026-05-07 11:30 49.22661 -54.37142 38108 ft 419 kts 254°
2026-05-07 11:30 49.21592 -54.45849 38112 ft 419 kts 254°
2026-05-07 11:31 49.20509 -54.54605 38100 ft 419 kts 254°
2026-05-07 11:31 49.19386 -54.63342 38115 ft 419 kts 253°
2026-05-07 11:32 49.17705 -54.76420 38092 ft 418 kts 253°
2026-05-07 11:33 49.16598 -54.85140 38087 ft 418 kts 253°
2026-05-07 11:33 49.15485 -54.93876 38090 ft 420 kts 253°
2026-05-07 11:34 49.14366 -55.02622 38072 ft 420 kts 253°
2026-05-07 11:34 49.13239 -55.11365 38080 ft 420 kts 253°
2026-05-07 11:35 49.12105 -55.20108 38078 ft 420 kts 253°
2026-05-07 11:35 49.10965 -55.28843 38085 ft 420 kts 252°
2026-05-07 11:36 49.09822 -55.37551 38076 ft 418 kts 252°
2026-05-07 11:36 49.08677 -55.46209 38077 ft 421 kts 252°
2026-05-07 11:37 49.07507 -55.54992 38066 ft 422 kts 252°
2026-05-07 11:37 49.06335 -55.63761 38066 ft 422 kts 252°
2026-05-07 11:38 49.05155 -55.72532 38071 ft 422 kts 252°
2026-05-07 11:38 49.03963 -55.81309 38057 ft 422 kts 252°
2026-05-07 11:39 49.02728 -55.90046 38061 ft 422 kts 252°
2026-05-07 11:39 49.01502 -55.98794 38058 ft 424 kts 252°
2026-05-07 11:40 49.00277 -56.07615 38053 ft 426 kts 252°
2026-05-07 11:40 48.99050 -56.16459 38052 ft 427 kts 252°
2026-05-07 11:41 48.97825 -56.25246 38047 ft 427 kts 252°
2026-05-07 11:41 48.96586 -56.34077 38046 ft 427 kts 252°
2026-05-07 11:42 48.95338 -56.42906 38042 ft 427 kts 252°
2026-05-07 11:42 48.94087 -56.51711 38043 ft 427 kts 252°
2026-05-07 11:43 48.92824 -56.60547 38049 ft 427 kts 252°
2026-05-07 11:43 48.91557 -56.69369 38034 ft 427 kts 252°
2026-05-07 11:44 48.90281 -56.78186 38035 ft 427 kts 252°
2026-05-07 11:44 48.89002 -56.86985 38027 ft 427 kts 252°
2026-05-07 11:45 48.87715 -56.95782 38026 ft 427 kts 252°
2026-05-07 11:45 48.86417 -57.04585 38026 ft 427 kts 252°
2026-05-07 11:46 48.85075 -57.13357 38026 ft 427 kts 252°
2026-05-07 11:46 48.83738 -57.22156 38026 ft 428 kts 252°
2026-05-07 11:47 48.82423 -57.30900 38022 ft 428 kts 252°
2026-05-07 11:47 48.81099 -57.39699 38015 ft 428 kts 252°
2026-05-07 11:48 48.79769 -57.48492 38017 ft 428 kts 252°
2026-05-07 11:48 48.78433 -57.57276 38013 ft 428 kts 252°
2026-05-07 11:49 48.77306 -57.64639 38015 ft 428 kts 252°
2026-05-07 11:49 48.75957 -57.73415 38015 ft 427 kts 252°
2026-05-07 11:50 48.74610 -57.82129 38014 ft 427 kts 252°
2026-05-07 11:50 48.73246 -57.90905 38001 ft 428 kts 251°
2026-05-07 11:51 48.71874 -57.99685 37995 ft 428 kts 251°
2026-05-07 11:51 48.70496 -58.08459 37991 ft 428 kts 251°
2026-05-07 11:52 48.69110 -58.17229 37973 ft 428 kts 251°
2026-05-07 11:52 48.67715 -58.26006 37966 ft 429 kts 251°
2026-05-07 11:53 48.66277 -58.34769 37967 ft 429 kts 251°
2026-05-07 11:53 48.64840 -58.43534 37948 ft 429 kts 251°
2026-05-07 11:54 48.63416 -58.52303 37973 ft 430 kts 251°
2026-05-07 11:54 48.61996 -58.61054 37942 ft 428 kts 251°
2026-05-07 11:55 48.60572 -58.69787 37920 ft 428 kts 251°
2026-05-07 11:55 48.59144 -58.78505 37920 ft 426 kts 251°
2026-05-07 11:56 48.57714 -58.87187 37910 ft 426 kts 251°
2026-05-07 11:56 48.56276 -58.95866 37894 ft 426 kts 251°
2026-05-07 11:57 48.54842 -59.04480 37888 ft 426 kts 251°
2026-05-07 11:57 48.53396 -59.13122 37889 ft 426 kts 251°
2026-05-07 11:58 48.51937 -59.21798 37875 ft 427 kts 251°
2026-05-07 11:58 48.50467 -59.30489 37867 ft 430 kts 251°
2026-05-07 11:59 48.48979 -59.39246 37869 ft 432 kts 251°
2026-05-07 11:59 48.47483 -59.48009 37854 ft 432 kts 251°
2026-05-07 12:00 48.45945 -59.56743 37854 ft 431 kts 250°
2026-05-07 12:00 48.44411 -59.65472 37837 ft 431 kts 250°
2026-05-07 12:01 48.42887 -59.74211 37836 ft 431 kts 250°
2026-05-07 12:01 48.41365 -59.82948 37844 ft 430 kts 251°
2026-05-07 12:02 48.39842 -59.91653 37827 ft 429 kts 251°
2026-05-07 12:02 48.38316 -60.00332 37827 ft 429 kts 251°
2026-05-07 12:03 48.36780 -60.09020 37827 ft 429 kts 251°
2026-05-07 12:03 48.35250 -60.17630 37801 ft 429 kts 251°
2026-05-07 12:04 48.33705 -60.26287 37805 ft 429 kts 251°
2026-05-07 12:04 48.32154 -60.34940 37799 ft 428 kts 251°
2026-05-07 12:05 48.30607 -60.43531 37785 ft 425 kts 250°
2026-05-07 12:05 48.29056 -60.52097 37774 ft 425 kts 250°
2026-05-07 12:06 48.27499 -60.60649 37768 ft 425 kts 250°
2026-05-07 12:06 48.25936 -60.69193 37742 ft 424 kts 250°
2026-05-07 12:07 48.24331 -60.77713 37741 ft 424 kts 250°
2026-05-07 12:07 48.22731 -60.86229 37747 ft 424 kts 250°
2026-05-07 12:08 48.21146 -60.94740 37727 ft 424 kts 250°
2026-05-07 12:08 48.19569 -61.03206 37752 ft 425 kts 250°
2026-05-07 12:09 48.17971 -61.11751 37725 ft 427 kts 250°
2026-05-07 12:09 48.16362 -61.20311 37705 ft 427 kts 250°
2026-05-07 12:10 48.14747 -61.28873 37705 ft 427 kts 249°
2026-05-07 12:10 48.13127 -61.37417 37683 ft 427 kts 249°
2026-05-07 12:11 48.11505 -61.45933 37690 ft 425 kts 249°
2026-05-07 12:11 48.09876 -61.54445 37695 ft 425 kts 249°
2026-05-07 12:12 48.08242 -61.62943 37732 ft 425 kts 250°
2026-05-07 12:12 48.06599 -61.71443 37687 ft 428 kts 249°
2026-05-07 12:13 48.04942 -61.79992 37685 ft 428 kts 249°
2026-05-07 12:13 48.03278 -61.88527 37665 ft 428 kts 249°
2026-05-07 12:14 48.01574 -61.97037 37670 ft 427 kts 249°
2026-05-07 12:14 47.99872 -62.05546 37674 ft 428 kts 249°
2026-05-07 12:15 47.98193 -62.14010 37661 ft 428 kts 249°
2026-05-07 12:15 47.96505 -62.22519 37660 ft 428 kts 249°
2026-05-07 12:16 47.94808 -62.31038 37664 ft 429 kts 249°
2026-05-07 12:16 47.93100 -62.39577 37647 ft 430 kts 249°
2026-05-07 12:17 47.91386 -62.48107 37644 ft 429 kts 250°
2026-05-07 12:17 47.89668 -62.56625 37646 ft 429 kts 249°
2026-05-07 12:18 47.87943 -62.65134 37638 ft 429 kts 249°
2026-05-07 12:18 47.86212 -62.73637 37639 ft 429 kts 249°
2026-05-07 12:19 47.84475 -62.82134 37641 ft 429 kts 249°
2026-05-07 12:19 47.82727 -62.90644 37627 ft 430 kts 249°
2026-05-07 12:20 47.80970 -62.99166 37628 ft 431 kts 249°
2026-05-07 12:20 47.79208 -63.07672 37630 ft 430 kts 249°
2026-05-07 12:21 47.77415 -63.16099 37619 ft 430 kts 249°
2026-05-07 12:21 47.75618 -63.24571 37622 ft 430 kts 249°
2026-05-07 12:22 47.73833 -63.33047 37615 ft 430 kts 249°
2026-05-07 12:22 47.72048 -63.41523 37615 ft 430 kts 249°
2026-05-07 12:23 47.70263 -63.49966 37615 ft 428 kts 249°
2026-05-07 12:23 47.68476 -63.58380 37624 ft 427 kts 249°
2026-05-07 12:24 47.66685 -63.66781 37611 ft 427 kts 249°
2026-05-07 12:24 47.64888 -63.75170 37613 ft 427 kts 249°
2026-05-07 12:25 47.63084 -63.83563 37612 ft 427 kts 249°
2026-05-07 12:25 47.61276 -63.91938 37611 ft 427 kts 249°
2026-05-07 12:26 47.59465 -64.00293 37618 ft 425 kts 249°
2026-05-07 12:26 47.57650 -64.08633 37619 ft 426 kts 249°
2026-05-07 12:27 47.55835 -64.16933 37610 ft 426 kts 249°
2026-05-07 12:27 47.54007 -64.25261 37620 ft 426 kts 249°
2026-05-07 12:28 47.52134 -64.33580 37613 ft 426 kts 249°
2026-05-07 12:28 47.50267 -64.41897 37614 ft 426 kts 249°
2026-05-07 12:29 47.48401 -64.50270 37620 ft 425 kts 249°
2026-05-07 12:29 47.46562 -64.58518 37623 ft 425 kts 249°
2026-05-07 12:30 47.44705 -64.66817 37633 ft 426 kts 249°
2026-05-07 12:30 47.42835 -64.75140 37629 ft 427 kts 249°
2026-05-07 12:31 47.40957 -64.83464 37625 ft 427 kts 249°
2026-05-07 12:31 47.39076 -64.91769 37628 ft 427 kts 249°
2026-05-07 12:32 47.37192 -65.00060 37627 ft 425 kts 249°
2026-05-07 12:32 47.35303 -65.08335 37634 ft 425 kts 249°
2026-05-07 12:33 47.32461 -65.20727 37680 ft 425 kts 249°
2026-05-07 12:33 47.30555 -65.28992 37642 ft 427 kts 249°
2026-05-07 12:34 47.28651 -65.37226 37641 ft 427 kts 249°
2026-05-07 12:34 47.26712 -65.45495 37643 ft 426 kts 249°
2026-05-07 12:35 47.24756 -65.53719 37655 ft 425 kts 249°
2026-05-07 12:35 47.22817 -65.61938 37646 ft 425 kts 249°
2026-05-07 12:36 47.20883 -65.70159 37654 ft 425 kts 249°
2026-05-07 12:36 47.19262 -65.77038 37650 ft 425 kts 249°
2026-05-07 12:37 47.17329 -65.85211 37656 ft 426 kts 249°
2026-05-07 12:37 47.15375 -65.93438 37639 ft 426 kts 249°
2026-05-07 12:38 47.13425 -66.01623 37657 ft 424 kts 249°
2026-05-07 12:38 47.11472 -66.09788 37658 ft 424 kts 249°
2026-05-07 12:39 47.09512 -66.17951 37660 ft 424 kts 249°
2026-05-07 12:39 47.07546 -66.26110 37668 ft 424 kts 249°
2026-05-07 12:40 47.05575 -66.34257 37664 ft 424 kts 248°
2026-05-07 12:40 47.03595 -66.42413 37666 ft 424 kts 248°
2026-05-07 12:41 47.01617 -66.50531 37677 ft 422 kts 248°
2026-05-07 12:41 46.99630 -66.58626 37687 ft 422 kts 248°
2026-05-07 12:42 46.97612 -66.66680 37692 ft 422 kts 248°
2026-05-07 12:42 46.95602 -66.74753 37691 ft 422 kts 248°
2026-05-07 12:43 46.93601 -66.82826 37704 ft 422 kts 248°
2026-05-07 12:43 46.91612 -66.90843 37699 ft 421 kts 248°
2026-05-07 12:44 46.89607 -66.98897 37712 ft 422 kts 248°
2026-05-07 12:44 46.87594 -67.06951 37714 ft 422 kts 248°
2026-05-07 12:45 46.85576 -67.14999 37711 ft 422 kts 248°
2026-05-07 12:45 46.83555 -67.23041 37713 ft 422 kts 248°
2026-05-07 12:46 46.81777 -67.31208 37718 ft 423 kts 251°
2026-05-07 12:46 46.80180 -67.39467 37712 ft 423 kts 252°
2026-05-07 12:47 46.78595 -67.47720 37752 ft 422 kts 252°
2026-05-07 12:47 46.76996 -67.55954 37724 ft 422 kts 252°
2026-05-07 12:48 46.75384 -67.64182 37723 ft 422 kts 251°
2026-05-07 12:48 46.73765 -67.72399 37738 ft 422 kts 251°
2026-05-07 12:49 46.72140 -67.80617 37741 ft 422 kts 251°
2026-05-07 12:49 46.70509 -67.88832 37748 ft 422 kts 251°
2026-05-07 12:50 46.68872 -67.97038 37748 ft 422 kts 251°
2026-05-07 12:50 46.67226 -68.05257 37758 ft 424 kts 251°
2026-05-07 12:51 46.65569 -68.13498 37753 ft 424 kts 251°
2026-05-07 12:51 46.63905 -68.21735 37747 ft 424 kts 251°
2026-05-07 12:52 46.62234 -68.29976 37748 ft 425 kts 251°
2026-05-07 12:52 46.60557 -68.38210 37741 ft 424 kts 251°
2026-05-07 12:53 46.58848 -68.46419 37740 ft 424 kts 251°
2026-05-07 12:53 46.57144 -68.54563 37758 ft 425 kts 251°
2026-05-07 12:54 46.55430 -68.62818 37742 ft 427 kts 251°
2026-05-07 12:54 46.53720 -68.71072 37744 ft 427 kts 251°
2026-05-07 12:55 46.52005 -68.79326 37752 ft 427 kts 251°
2026-05-07 12:55 46.50283 -68.87576 37754 ft 427 kts 251°
2026-05-07 12:56 46.48556 -68.95817 37760 ft 427 kts 251°
2026-05-07 12:56 46.46824 -69.04048 37757 ft 426 kts 251°
2026-05-07 12:57 46.45094 -69.12234 37753 ft 425 kts 251°
2026-05-07 12:57 46.43356 -69.20428 37764 ft 425 kts 251°
2026-05-07 12:58 46.41612 -69.28617 37766 ft 425 kts 251°
2026-05-07 12:58 46.39873 -69.36745 37769 ft 425 kts 251°
2026-05-07 12:59 46.38116 -69.44929 37768 ft 425 kts 251°
2026-05-07 12:59 46.36353 -69.53108 37787 ft 425 kts 251°
2026-05-07 13:00 46.34552 -69.61301 37771 ft 428 kts 250°
2026-05-07 13:00 46.32736 -69.69503 37769 ft 428 kts 251°
2026-05-07 13:01 46.30935 -69.77708 37761 ft 428 kts 251°
2026-05-07 13:01 46.29136 -69.85917 37759 ft 428 kts 251°
2026-05-07 13:02 46.27332 -69.94126 37759 ft 428 kts 251°
2026-05-07 13:02 46.25523 -70.02322 37766 ft 428 kts 251°
2026-05-07 13:03 46.23709 -70.10508 37768 ft 427 kts 251°
2026-05-07 13:03 46.21907 -70.18608 37774 ft 426 kts 251°
2026-05-07 13:04 46.20089 -70.26749 37772 ft 426 kts 251°
2026-05-07 13:04 46.18264 -70.34891 37773 ft 426 kts 251°
2026-05-07 13:05 46.16435 -70.43018 37779 ft 426 kts 251°
2026-05-07 13:05 46.14601 -70.51138 37782 ft 426 kts 251°
2026-05-07 13:06 46.12761 -70.59249 37771 ft 425 kts 251°
2026-05-07 13:06 46.10927 -70.67309 37783 ft 422 kts 251°
2026-05-07 13:07 46.09064 -70.75346 37787 ft 422 kts 250°
2026-05-07 13:07 46.07193 -70.83357 37789 ft 422 kts 251°
2026-05-07 13:08 46.05336 -70.91379 37784 ft 422 kts 251°
2026-05-07 13:08 46.03496 -70.99332 37787 ft 422 kts 251°
2026-05-07 13:09 46.01641 -71.07334 37816 ft 422 kts 251°
2026-05-07 13:09 45.99785 -71.15312 37791 ft 419 kts 251°
2026-05-07 13:10 45.97933 -71.23239 37798 ft 418 kts 251°
2026-05-07 13:10 45.96081 -71.31140 37800 ft 417 kts 251°
2026-05-07 13:11 45.94222 -71.39037 37797 ft 417 kts 250°
2026-05-07 13:11 45.92361 -71.46920 37806 ft 416 kts 250°
2026-05-07 13:12 45.90501 -71.54767 37816 ft 416 kts 250°
2026-05-07 13:12 45.88641 -71.62588 37804 ft 416 kts 250°
2026-05-07 13:13 45.86770 -71.70424 37811 ft 414 kts 250°
2026-05-07 13:13 45.84901 -71.78229 37810 ft 414 kts 250°
2026-05-07 13:14 45.83014 -71.86022 37813 ft 413 kts 250°
2026-05-07 13:14 45.81103 -71.93786 37810 ft 413 kts 250°
2026-05-07 13:15 45.79206 -72.01553 37809 ft 412 kts 250°
2026-05-07 13:15 45.77318 -72.09311 37821 ft 413 kts 250°
2026-05-07 13:16 45.75427 -72.17067 37808 ft 411 kts 250°
2026-05-07 13:16 45.73539 -72.24786 37817 ft 411 kts 250°
2026-05-07 13:17 45.71646 -72.32499 37817 ft 411 kts 250°
2026-05-07 13:17 45.69747 -72.40208 37818 ft 411 kts 250°
2026-05-07 13:18 45.67843 -72.47912 37829 ft 411 kts 250°
2026-05-07 13:18 45.65932 -72.55621 37835 ft 413 kts 250°
2026-05-07 13:19 45.63999 -72.63388 37826 ft 415 kts 250°
2026-05-07 13:19 45.62066 -72.71142 37828 ft 414 kts 251°
2026-05-07 13:20 45.60960 -72.79214 37832 ft 416 kts 262°
2026-05-07 13:20 45.60563 -72.87461 37833 ft 417 kts 264°
2026-05-07 13:21 45.60210 -72.95677 37823 ft 417 kts 263°
2026-05-07 13:21 45.59802 -73.03959 37828 ft 419 kts 263°
2026-05-07 13:22 45.59365 -73.12254 37824 ft 419 kts 263°
2026-05-07 13:22 45.58916 -73.20545 37821 ft 419 kts 263°
2026-05-07 13:23 45.58462 -73.28835 37823 ft 419 kts 263°
2026-05-07 13:23 45.58001 -73.37130 37822 ft 419 kts 263°
2026-05-07 13:24 45.57611 -73.44073 37840 ft 418 kts 263°
2026-05-07 13:24 45.57145 -73.52287 37821 ft 418 kts 263°
2026-05-07 13:25 45.56668 -73.60561 37837 ft 418 kts 263°
2026-05-07 13:25 45.56186 -73.68819 37838 ft 418 kts 263°
2026-05-07 13:26 45.55699 -73.77074 37846 ft 418 kts 263°
2026-05-07 13:26 45.55205 -73.85331 37837 ft 418 kts 263°
2026-05-07 13:27 45.54699 -73.93565 37818 ft 417 kts 262°
2026-05-07 13:27 45.54155 -74.01807 37815 ft 417 kts 262°
2026-05-07 13:28 45.53624 -74.10053 37821 ft 418 kts 263°
2026-05-07 13:28 45.53103 -74.18302 37834 ft 418 kts 263°
2026-05-07 13:29 45.52579 -74.26556 37835 ft 419 kts 263°
2026-05-07 13:29 45.52048 -74.34831 37832 ft 420 kts 262°
2026-05-07 13:30 45.51508 -74.43116 37837 ft 419 kts 262°
2026-05-07 13:30 45.50614 -74.51257 37834 ft 417 kts 257°
2026-05-07 13:31 45.49468 -74.59334 37837 ft 415 kts 257°
2026-05-07 13:31 45.48316 -74.67395 37862 ft 415 kts 257°
2026-05-07 13:32 45.47175 -74.75502 37843 ft 418 kts 257°
2026-05-07 13:32 45.46032 -74.83638 37848 ft 419 kts 257°
2026-05-07 13:33 45.44886 -74.91774 37848 ft 419 kts 257°
2026-05-07 13:33 45.43734 -74.99902 37851 ft 419 kts 257°
2026-05-07 13:34 45.41969 -75.12082 37873 ft 420 kts 257°
2026-05-07 13:35 45.40787 -75.20182 37863 ft 421 kts 257°
2026-05-07 13:35 45.39600 -75.28340 37866 ft 420 kts 257°
2026-05-07 13:36 45.38411 -75.36480 37868 ft 420 kts 257°
2026-05-07 13:36 45.37218 -75.44609 37876 ft 420 kts 257°
2026-05-07 13:37 45.36019 -75.52740 37878 ft 420 kts 257°
2026-05-07 13:37 45.34809 -75.60893 37880 ft 422 kts 257°
2026-05-07 13:38 45.33592 -75.69057 37879 ft 422 kts 257°
2026-05-07 13:38 45.32369 -75.77219 37878 ft 422 kts 257°
2026-05-07 13:39 45.31138 -75.85386 37879 ft 422 kts 257°
2026-05-07 13:39 45.29904 -75.93539 37881 ft 422 kts 257°
2026-05-07 13:40 45.28666 -76.01674 37897 ft 421 kts 257°
2026-05-07 13:40 45.27421 -76.09808 37895 ft 422 kts 257°
2026-05-07 13:41 45.26159 -76.17944 37897 ft 422 kts 256°
2026-05-07 13:41 45.24020 -76.25644 37899 ft 422 kts 239°
2026-05-07 13:42 45.20335 -76.32173 37900 ft 426 kts 231°
2026-05-07 13:42 45.16366 -76.38387 37908 ft 426 kts 231°
2026-05-07 13:43 45.12456 -76.44677 37916 ft 424 kts 232°
2026-05-07 13:43 45.08594 -76.51021 37916 ft 426 kts 232°
2026-05-07 13:44 45.04753 -76.57355 37923 ft 427 kts 232°
2026-05-07 13:44 45.00887 -76.63720 37923 ft 427 kts 232°
2026-05-07 13:45 44.97017 -76.70073 37925 ft 426 kts 232°
2026-05-07 13:45 44.93156 -76.76397 37932 ft 425 kts 232°
2026-05-07 13:46 44.89297 -76.82705 37932 ft 425 kts 232°
2026-05-07 13:46 44.85428 -76.89014 37939 ft 425 kts 232°
2026-05-07 13:47 44.81568 -76.95306 37925 ft 423 kts 233°
2026-05-07 13:47 44.78296 -77.02114 37952 ft 419 kts 242°
2026-05-07 13:47 44.76856 -77.05688 37845 ft 421 kts 243°
2026-05-07 13:48 44.75444 -77.09285 37607 ft 420 kts 243°
2026-05-07 13:48 44.74029 -77.12887 37327 ft 420 kts 243°
2026-05-07 13:48 44.72606 -77.16481 36868 ft 420 kts 243°
2026-05-07 13:48 44.71178 -77.20055 36363 ft 419 kts 242°
2026-05-07 13:49 44.69745 -77.23618 35882 ft 418 kts 242°
2026-05-07 13:49 44.68312 -77.27165 35399 ft 418 kts 242°
2026-05-07 13:49 44.66894 -77.30663 34918 ft 416 kts 242°
2026-05-07 13:49 44.65463 -77.34187 34449 ft 414 kts 243°
2026-05-07 13:50 44.64039 -77.37690 33976 ft 413 kts 243°
2026-05-07 13:50 44.62615 -77.41190 33433 ft 412 kts 243°
2026-05-07 13:50 44.61195 -77.44676 32926 ft 412 kts 243°
2026-05-07 13:50 44.59769 -77.48173 32423 ft 412 kts 243°
2026-05-07 13:51 44.58342 -77.51669 31909 ft 413 kts 243°
2026-05-07 13:51 44.56914 -77.55162 31413 ft 413 kts 243°
2026-05-07 13:51 44.55484 -77.58655 30898 ft 413 kts 243°
2026-05-07 13:51 44.54053 -77.62146 30372 ft 413 kts 243°
2026-05-07 13:52 44.52629 -77.65615 29803 ft 409 kts 243°
2026-05-07 13:52 44.51209 -77.69042 29200 ft 403 kts 243°
2026-05-07 13:52 44.49803 -77.72410 28637 ft 398 kts 243°
2026-05-07 13:52 44.48413 -77.75741 28095 ft 395 kts 243°
2026-05-07 13:53 44.47036 -77.79047 27544 ft 391 kts 243°
2026-05-07 13:53 44.45672 -77.82326 27017 ft 388 kts 243°
2026-05-07 13:53 44.44322 -77.85574 26494 ft 385 kts 243°
2026-05-07 13:53 44.42981 -77.88798 25978 ft 382 kts 243°
2026-05-07 13:54 44.41648 -77.92001 25459 ft 379 kts 243°
2026-05-07 13:54 44.40325 -77.95176 24946 ft 377 kts 243°
2026-05-07 13:54 44.39003 -77.98349 24430 ft 376 kts 243°
2026-05-07 13:54 44.37687 -78.01502 23920 ft 374 kts 243°
2026-05-07 13:55 44.36379 -78.04631 23340 ft 371 kts 243°
2026-05-07 13:55 44.35082 -78.07721 22802 ft 367 kts 243°
2026-05-07 13:55 44.33791 -78.10790 22245 ft 365 kts 243°
2026-05-07 13:55 44.32512 -78.13831 21697 ft 362 kts 243°
2026-05-07 13:56 44.31241 -78.16858 21159 ft 360 kts 243°
2026-05-07 13:56 44.29977 -78.19869 20629 ft 358 kts 243°
2026-05-07 13:56 44.28720 -78.22861 20095 ft 356 kts 243°
2026-05-07 13:56 44.27468 -78.25839 19559 ft 354 kts 243°
2026-05-07 13:57 44.26224 -78.28797 19047 ft 353 kts 243°
2026-05-07 13:57 44.24988 -78.31732 18530 ft 351 kts 243°
2026-05-07 13:57 44.23777 -78.34606 17986 ft 350 kts 243°
2026-05-07 13:57 44.22547 -78.37520 17420 ft 348 kts 243°
2026-05-07 13:58 44.21419 -78.40192 16937 ft 347 kts 243°
2026-05-07 13:58 44.20196 -78.43087 16432 ft 346 kts 243°
2026-05-07 13:58 44.18962 -78.46004 15903 ft 345 kts 243°
2026-05-07 13:58 44.17758 -78.48846 15425 ft 344 kts 243°
2026-05-07 13:59 44.16542 -78.51713 14932 ft 343 kts 243°
2026-05-07 13:59 44.15331 -78.54567 14446 ft 342 kts 242°
2026-05-07 13:59 44.14103 -78.57457 13952 ft 342 kts 242°
2026-05-07 13:59 44.12895 -78.60298 13422 ft 340 kts 242°
2026-05-07 14:00 44.11693 -78.63120 12920 ft 338 kts 242°
2026-05-07 14:00 44.10516 -78.65884 12440 ft 335 kts 242°
2026-05-07 14:00 44.09316 -78.68698 11952 ft 332 kts 242°
2026-05-07 14:00 44.08151 -78.71425 11489 ft 330 kts 242°
2026-05-07 14:01 44.06982 -78.74161 11156 ft 329 kts 241°
2026-05-07 14:01 44.05820 -78.76876 10981 ft 322 kts 241°
2026-05-07 14:01 44.04660 -78.79394 10886 ft 299 kts 236°
2026-05-07 14:01 44.03373 -78.81551 10785 ft 282 kts 232°
2026-05-07 14:02 44.02092 -78.83509 10690 ft 265 kts 231°
2026-05-07 14:02 44.00864 -78.85353 10591 ft 257 kts 231°
2026-05-07 14:02 43.99653 -78.87175 10399 ft 256 kts 231°
2026-05-07 14:02 43.98448 -78.88992 10063 ft 255 kts 231°
2026-05-07 14:03 43.97252 -78.90796 9575 ft 253 kts 231°
2026-05-07 14:03 43.96064 -78.92589 9122 ft 252 kts 231°
2026-05-07 14:03 43.94875 -78.94382 8691 ft 252 kts 231°
2026-05-07 14:03 43.93689 -78.96171 8267 ft 251 kts 230°
2026-05-07 14:04 43.92506 -78.97956 7859 ft 252 kts 230°
2026-05-07 14:04 43.91321 -78.99742 7479 ft 251 kts 230°
2026-05-07 14:04 43.90144 -79.01514 7212 ft 246 kts 230°
2026-05-07 14:04 43.89000 -79.03232 7091 ft 247 kts 231°
2026-05-07 14:05 43.87866 -79.05049 7020 ft 248 kts 238°
2026-05-07 14:05 43.87171 -79.07215 6988 ft 247 kts 256°
2026-05-07 14:05 43.86767 -79.09521 6741 ft 246 kts 258°
2026-05-07 14:05 43.86378 -79.11840 6258 ft 247 kts 258°
2026-05-07 14:06 43.85984 -79.14156 5819 ft 247 kts 258°
2026-05-07 14:06 43.85590 -79.16464 5369 ft 246 kts 258°
2026-05-07 14:06 43.85200 -79.18756 5060 ft 244 kts 258°
2026-05-07 14:06 43.84809 -79.21060 4803 ft 246 kts 258°
2026-05-07 14:07 43.84419 -79.23365 4535 ft 245 kts 258°
2026-05-07 14:07 43.84002 -79.25654 4266 ft 245 kts 255°
2026-05-07 14:07 43.83513 -79.27913 3999 ft 245 kts 254°
2026-05-07 14:07 43.83022 -79.30139 3737 ft 244 kts 254°
2026-05-07 14:08 43.82690 -79.31650 3563 ft 244 kts 254°
2026-05-07 14:08 43.82200 -79.33892 3304 ft 243 kts 254°
2026-05-07 14:08 43.81717 -79.36117 3061 ft 237 kts 254°
2026-05-07 14:08 43.81258 -79.38246 2992 ft 223 kts 254°
2026-05-07 14:09 43.80405 -79.40686 2981 ft 209 kts 231°
2026-05-07 14:09 43.79751 -79.41710 3010 ft 211 kts 230°
2026-05-07 14:09 43.78776 -79.43222 3002 ft 210 kts 230°
2026-05-07 14:09 43.77473 -79.45189 3004 ft 210 kts 229°
2026-05-07 14:10 43.76804 -79.46150 3012 ft 198 kts 228°
2026-05-07 14:10 43.75899 -79.47451 2987 ft 178 kts 228°
2026-05-07 14:10 43.75048 -79.48684 2878 ft 176 kts 229°
2026-05-07 14:10 43.74217 -79.49894 2624 ft 170 kts 229°
2026-05-07 14:11 43.73433 -79.51039 2362 ft 158 kts 228°
2026-05-07 14:11 43.72712 -79.52092 2139 ft 147 kts 228°
2026-05-07 14:11 43.72024 -79.53102 1945 ft 142 kts 228°
2026-05-07 14:11 43.71337 -79.54111 1768 ft 144 kts 228°
2026-05-07 14:12 43.70640 -79.55128 1544 ft 148 kts 228°
2026-05-07 14:12 43.69943 -79.56155 1361 ft 147 kts 229°
2026-05-07 14:12 43.69247 -79.57205 1137 ft 149 kts 229°
2026-05-07 14:12 43.68533 -79.58240 910 ft 148 kts 228°
2026-05-07 14:13 43.67828 -79.59267 696 ft 146 kts 229°
2026-05-07 14:13 43.67152 -79.60261 578 ft 133 kts 226°
2026-05-07 14:13 43.66591 -79.61083 573 ft 105 kts 226°
2026-05-07 14:13 43.66142 -79.61735 577 ft 71 kts 226°
2026-05-07 14:14 43.65981 -79.62069 569 ft 28 kts 261°
2026-05-07 14:14 43.66061 -79.62288 572 ft 25 kts 316°
2026-05-07 14:14 43.66187 -79.62452 572 ft 25 kts 318°
2026-05-07 14:14 43.66300 -79.62459 570 ft 17 kts 28°
2026-05-07 14:15 43.66394 -79.62355 573 ft 20 kts 42°
2026-05-07 14:15 43.66529 -79.62180 577 ft 33 kts 44°
2026-05-07 14:15 43.66709 -79.61947 579 ft 31 kts 39°
2026-05-07 14:15 43.66882 -79.61749 579 ft 32 kts 43°
2026-05-07 14:16 43.67040 -79.61541 576 ft 31 kts 42°
2026-05-07 14:16 43.67192 -79.61337 578 ft 31 kts 50°
2026-05-07 14:16 43.67324 -79.61118 576 ft 24 kts 30°
2026-05-07 14:16 43.67476 -79.61148 575 ft 20 kts 324°
2026-05-07 14:17 43.67555 -79.61173 578 ft 9 kts
2026-05-07 14:17 43.67585 -79.61169 578 ft 0 kts